Tracking 23885 objects as of 28-Nov-2021
HD Live streaming from Space Station
objects crossing your sky now

STARLINK-3141

Track STARLINK-3141 now!
10-day predictions
STARLINK-3141 is classified as:


NORAD ID: 49459
Int'l Code: 2021-104BD
Perigee: 343.4 km
Apogee: 345.5 km
Inclination: 53.2 °
Period: 91.3 minutes
Semi major axis: 6715 km
RCS: Unknown
Launch date: November 13, 2021
Source: United States (US)
Launch site: AIR FORCE EASTERN TEST RANGE (AFETR)
aabbcc
Your satellite tracking list
Your tracking list is empty




NASA's NSSDC Master Catalog

Two Line Element Set (TLE):
1 49459U 21104BD  21332.16667824 -.00819998  00000-0 -53027-2 0  9995
2 49459  53.2172  60.5821 0001545  33.2525  39.9159 15.77577661  3573
Source of the keplerian elements: AFSPC